Theta_e
307 307 308 307 307 306 303 305 305 304 299 298 294 294 296 301 302 303 303 302 301 301 302 303 303 303 301 302 306 305 306 307 307 310 311 312 312 312 313 312 313 314 314 314 314 320 324 318 321 325 321 319 319 320
307 307 307 308 308 307 306 304 306 305 304 298 296 293 295 300 303 303 304 304 301 301 302 303 303 303 302 302 303 303 306 306 306 309 311 310 313 313 314 318 313 319 317 318 317 321 317 316 318 317 317 318 319 319
306 306 306 307 307 306 307 306 306 306 305 304 297 294 295 300 305 303 304 304 302 302 303 306 306 305 304 303 303 303 304 306 305 306 307 308 311 310 315 314 314 314 314 316 318 318 317 314 314 314 315 317 318 319
307 307 306 306 306 305 306 307 306 307 306 302 295 294 296 302 305 305 304 304 302 302 303 308 306 306 306 304 304 303 303 303 304 305 307 308 310 310 312 309 311 310 310 315 317 316 317 314 313 313 314 315 317 318
307 307 307 306 307 306 306 307 307 307 306 300 298 295 298 304 306 305 305 304 303 303 307 306 306 307 306 306 306 305 304 303 305 307 309 310 309 310 311 311 312 312 313 315 316 313 314 315 313 313 314 313 315 317
307 307 307 307 306 307 306 306 307 307 306 306 302 295 299 304 306 306 307 305 305 304 302 306 307 308 307 308 308 307 306 305 306 307 308 308 309 310 312 312 311 310 310 310 312 312 312 312 313 313 313 312 313 316
305 306 306 307 306 306 305 306 307 307 306 306 302 296 302 306 306 307 308 307 306 305 303 306 310 308 308 309 307 306 307 308 307 309 309 310 310 310 310 311 311 309 308 308 309 310 312 313 314 312 311 311 313 317
300 304 305 306 306 306 306 306 306 307 306 306 301 299 307 307 307 307 307 307 307 304 304 306 311 310 309 310 310 309 309 308 308 309 310 308 307 309 313 309 307 307 307 307 309 309 310 310 311 311 311 311 314 317
300 303 304 305 305 305 306 306 306 306 306 306 301 305 307 307 309 307 307 307 305 305 306 305 308 310 310 311 309 309 309 311 309 310 308 307 308 311 307 307 306 306 306 307 307 308 309 311 311 311 311 312 314 316
298 299 301 301 302 304 305 305 306 306 305 306 297 306 309 307 307 307 305 305 304 305 306 308 308 309 308 310 310 309 309 310 312 312 308 310 312 309 310 310 310 309 309 310 308 310 311 312 312 312 312 312 312 313
300 299 301 302 303 303 305 305 305 305 305 304 303 302 302 301 303 307 308 308 307 308 307 308 310 311 308 309 309 306 309 310 313 312 310 312 311 311 309 309 309 309 309 309 310 310 310 311 311 312 313 312 312 314
292 296 298 300 300 304 305 304 304 304 303 303 302 300 303 305 308 310 311 310 311 310 311 311 310 309 309 306 308 307 308 310 314 310 312 312 312 310 309 309 309 309 310 310 310 310 311 312 311 312 313 312 313 314
291 292 294 294 298 305 304 303 303 303 304 302 302 303 305 308 308 310 309 310 310 309 309 309 310 310 308 307 308 308 310 311 309 313 312 312 310 309 309 309 310 310 310 310 311 311 311 311 311 312 313 313 315 316
291 291 292 293 299 304 302 303 303 303 303 303 305 308 310 310 311 312 311 309 308 308 308 308 309 311 310 309 308 308 309 308 312 313 313 312 310 309 309 309 310 310 310 310 312 311 310 311 313 314 315 316 316 316
290 291 292 295 299 302 302 303 303 303 303 303 306 308 310 309 309 309 309 309 309 309 309 309 309 309 311 310 308 307 309 311 311 313 312 311 310 309 309 309 310 310 310 310 311 313 313 314 315 316 317 316 316 316
290 291 296 297 297 296 297 300 302 302 302 302 305 310 310 310 309 308 309 308 309 309 309 309 310 311 311 310 308 308 310 314 311 312 310 310 310 309 309 309 309 310 310 311 310 311 312 312 313 314 315 315 315 316
290 295 295 296 297 298 300 301 301 302 304 306 308 308 307 308 308 307 307 307 308 308 309 308 308 309 310 311 309 312 310 309 310 310 310 310 310 309 309 308 308 309 311 310 310 310 310 309 310 310 310 311 311 314
291 293 294 294 298 299 300 300 302 303 305 307 309 309 309 308 308 307 307 307 308 308 308 308 308 310 310 312 314 311 310 310 310 309 309 309 310 309 308 308 307 308 310 310 310 310 310 309 308 308 309 309 310 311
291 291 293 295 297 299 300 300 300 303 305 307 308 309 308 308 307 307 307 307 308 307 308 308 308 309 311 310 308 307 308 309 308 309 309 309 310 309 309 308 307 307 309 309 309 309 310 310 310 309 307 308 309 308
290 293 295 296 298 299 300 301 301 303 305 308 308 308 308 308 307 307 307 307 307 307 308 308 309 308 308 308 307 307 307 308 308 308 308 309 309 309 308 308 308 307 307 307 308 308 309 310 310 310 309 307 306 306
290 295 294 295 297 299 300 302 302 302 303 304 306 307 307 308 307 307 307 307 307 307 308 306 306 306 306 307 307 308 308 308 308 307 307 307 308 308 308 307 307 307 307 307 307 308 309 309 309 310 308 307 306 305
292 293 294 295 297 298 298 300 302 301 301 303 304 305 306 306 306 306 307 307 307 307 307 307 307 306 306 306 308 309 307 308 308 308 306 307 307 308 307 306 306 306 306 306 307 307 308 308 307 308 307 306 306 305
292 292 293 295 297 297 299 301 302 302 304 304 303 305 306 306 305 304 306 306 307 307 306 306 306 306 306 306 307 308 309 309 308 308 307 307 307 307 306 305 305 305 305 305 306 307 307 307 307 306 306 306 306 305
294 294 296 296 296 299 300 302 301 303 304 305 306 306 307 307 306 306 306 306 306 306 306 306 306 306 306 307 306 307 309 309 308 308 307 307 306 306 304 304 304 305 305 305 306 306 307 307 305 305 306 305 304 304
295 295 294 296 297 298 301 301 302 304 304 305 305 306 306 305 306 306 306 306 306 305 305 305 306 306 307 307 307 308 309 309 308 308 307 306 304 303 303 303 303 304 304 305 305 306 307 306 305 304 304 303 303 304
295 295 296 297 298 299 301 301 301 303 304 304 304 304 305 306 305 305 306 305 305 305 304 305 305 306 306 306 306 307 308 308 308 307 306 304 302 301 301 301 303 304 304 304 305 305 305 305 304 303 302 302 302 302
295 296 296 296 298 299 300 301 301 303 303 304 304 305 305 306 305 305 303 304 304 304 303 303 304 305 306 305 305 306 308 307 307 306 305 303 303 302 301 301 302 303 303 304 303 303 303 303 302 302 301 302 301 301
293 294 296 296 297 298 299 300 300 301 303 303 304 305 305 305 305 304 304 303 303 302 302 302 303 304 305 306 306 307 307 306 305 304 303 302 302 302 302 302 301 300 302 301 302 302 302 301 301 299 298 299 299 299
293 294 295 296 295 297 297 298 299 299 300 300 302 303 302 302 303 303 303 303 302 301 301 301 303 303 303 305 306 306 306 305 304 304 304 303 303 302 302 302 302 302 301 300 299 298 298 298 298 298 297 297 296 295
294 294 295 295 296 296 296 296 296 297 297 298 298 299 299 300 301 301 301 301 301 301 301 301 301 302 303 304 304 304 304 304 304 303 302 303 303 301 300 300 301 301 301 300 299 298 297 297 296 296 295 295 295 294
294 295 294 295 296 295 296 296 296 296 297 297 297 298 299 299 299 298 298 298 299 299 300 301 302 301 301 303 303 302 301 301 301 302 302 302 300 300 299 300 300 300 300 299 298 298 297 296 295 295 294 294 294 293
295 295 295 296 296 296 296 297 297 297 298 298 298 297 298 298 300 296 295 296 299 299 299 300 301 298 298 298 299 301 301 301 301 301 299 298 297 297 297 298 299 299 298 297 297 296 295 295 294 294 293 292 291 290
294 295 295 296 296 296 296 296 297 298 299 299 299 299 299 299 295 291 293 294 295 296 296 297 298 299 299 299 298 298 299 298 297 297 298 298 297 296 296 296 296 296 296 296 295 294 293 293 292 291 290 290 289 289
Wind_Speed
23 24 23 25 28 27 27 28 28 28 30 23 29 31 28 22 8 8 9 11 11 9 21 18 16 14 8 9 3 11 9 1 3 2 4 4 4 4 4 2 7 7 6 5 3 5 5 17 4 4 8 8 10 12
24 23 25 26 28 30 29 29 30 28 27 26 26 30 29 23 13 8 11 11 11 15 18 22 19 14 14 21 20 5 6 6 3 3 3 3 3 2 4 1 5 3 1 1 2 3 4 10 9 8 8 9 12 14
25 25 25 27 29 30 31 30 29 30 29 27 24 30 28 22 14 12 9 10 13 13 18 6 4 8 11 6 9 5 3 4 3 7 2 2 3 3 3 3 5 2 5 2 7 4 6 5 8 10 12 12 15 15
27 26 27 28 29 29 29 30 30 32 32 27 24 30 27 19 13 12 8 5 7 7 4 4 4 13 9 12 11 9 18 11 9 11 4 2 4 3 2 2 2 3 6 4 6 4 4 8 12 16 17 15 17 16
29 26 27 26 27 29 30 29 31 32 31 28 29 28 22 16 13 11 11 8 8 3 5 12 15 4 11 11 10 11 6 13 6 4 3 2 4 4 2 2 1 1 5 3 2 12 7 9 14 19 14 20 20 19
30 29 27 27 28 29 30 31 30 33 32 31 30 26 18 17 7 4 1 0 3 7 3 3 7 6 8 7 7 3 4 7 4 4 4 4 6 6 4 2 4 7 9 12 12 19 19 19 18 15 17 23 19 19
28 29 28 28 28 27 28 30 30 31 33 33 30 24 15 7 2 3 1 3 8 3 2 5 4 2 6 3 3 1 4 4 5 5 3 8 7 11 3 4 12 13 15 19 20 21 19 9 15 20 20 21 20 17
27 29 28 28 26 26 27 28 29 31 32 34 28 20 7 0 4 1 5 5 3 1 3 3 4 5 4 4 2 2 2 3 3 5 3 3 9 5 3 15 22 22 21 19 15 16 21 24 22 21 18 19 18 15
25 27 28 27 28 28 27 26 29 31 31 32 26 8 1 2 1 5 7 4 6 3 3 2 3 3 8 2 2 2 1 2 1 1 0 2 2 2 6 18 20 22 15 22 21 21 21 22 22 20 18 16 15 15
28 27 28 28 28 25 24 26 28 30 31 27 12 4 3 3 4 4 2 3 3 3 4 4 3 3 6 5 2 3 1 2 2 2 2 2 1 10 12 17 16 23 22 22 20 19 16 19 18 19 19 17 16 16
22 22 24 23 24 23 22 24 23 27 29 16 8 4 8 12 5 4 4 4 5 3 6 6 6 5 2 3 3 1 3 1 2 3 2 1 4 12 20 21 24 25 27 23 18 17 19 19 18 19 18 15 14 14
23 22 23 26 25 20 20 19 17 22 20 21 17 16 8 2 4 4 4 4 5 1 5 4 3 4 2 2 3 2 2 2 1 2 2 4 6 19 23 23 26 28 29 26 21 17 15 16 13 13 14 13 12 14
23 22 22 26 18 16 16 12 16 21 25 13 2 3 3 3 3 5 5 3 3 4 3 3 4 1 3 3 3 2 2 1 5 2 3 3 14 19 23 24 28 30 33 28 21 12 4 7 7 7 8 10 10 12
24 22 19 21 15 14 9 14 19 20 13 3 3 4 5 5 5 4 5 2 2 4 4 6 3 4 3 3 1 2 0 1 2 1 2 5 14 18 21 24 25 28 33 31 22 14 8 5 4 5 6 8 10 9
23 23 19 18 11 9 15 18 18 18 5 4 4 5 6 9 5 5 7 5 6 4 4 4 2 4 3 3 1 2 2 2 2 2 3 9 10 15 20 23 24 26 27 33 27 20 18 12 10 9 8 7 8 8
23 22 10 13 17 18 16 18 17 9 5 6 8 6 8 6 9 9 12 11 6 5 3 4 2 3 3 2 2 3 2 3 2 3 6 7 8 10 15 20 22 23 23 23 26 24 19 17 15 13 11 10 10 9
20 7 16 18 21 20 14 17 6 6 6 6 8 14 17 12 10 10 7 10 8 8 5 2 3 2 2 3 2 3 4 3 6 5 4 4 4 8 11 15 20 21 21 22 21 18 23 22 19 20 20 18 16 12
17 17 18 17 19 22 16 4 5 6 8 12 8 12 13 13 13 12 10 10 10 11 7 6 3 6 4 3 2 4 9 7 7 6 5 5 3 5 8 12 15 19 20 20 22 17 21 26 25 26 22 23 20 18
20 19 17 13 16 12 5 4 5 6 10 11 15 16 13 14 14 15 14 12 12 11 7 5 6 7 8 7 7 8 5 6 5 4 4 4 3 3 6 8 11 13 15 18 20 21 20 20 21 23 27 21 21 22
17 14 9 8 10 4 5 6 5 7 6 5 9 11 12 12 10 10 12 13 13 10 9 6 11 17 15 13 11 9 8 5 5 6 4 2 1 2 5 8 10 11 11 13 15 19 19 19 20 20 22 27 25 24
17 6 9 8 9 9 7 6 7 7 8 7 9 8 9 8 11 11 12 12 14 9 9 18 20 21 19 17 13 10 10 9 7 5 4 3 2 3 4 5 8 10 11 12 12 13 13 15 17 15 18 17 26 25
12 11 13 11 6 6 9 11 8 5 6 10 12 14 13 12 16 16 11 12 9 19 19 18 17 17 16 17 16 15 13 12 10 6 6 5 4 2 2 4 7 8 10 10 11 11 12 13 16 15 16 16 15 22
7 10 9 8 8 7 8 9 8 7 5 4 4 4 4 4 3 4 5 8 8 9 10 10 11 13 16 14 13 14 15 15 12 9 6 5 3 2 3 5 5 6 8 9 9 10 10 11 13 12 13 13 15 18
11 6 5 6 12 6 6 6 6 5 7 9 5 7 6 5 3 4 4 10 12 6 8 9 9 10 11 14 16 15 16 17 13 10 8 7 6 1 2 3 3 4 6 8 8 7 7 9 12 12 12 12 13 17
7 7 6 8 7 5 6 5 7 7 9 10 12 11 4 4 3 4 5 4 3 4 6 7 7 7 11 11 10 11 14 16 15 13 10 8 4 3 1 1 2 3 6 7 8 8 7 8 10 11 14 15 12 13
6 8 9 5 3 6 6 7 8 14 14 14 6 6 2 4 5 5 3 1 3 6 7 7 7 6 8 10 10 11 13 15 16 14 12 9 6 2 0 0 1 2 5 6 6 7 8 8 9 9 10 11 12 11
7 8 11 13 9 7 5 9 14 5 6 5 4 5 3 4 5 1 4 3 4 6 9 10 10 8 8 9 9 10 13 17 15 13 13 11 8 5 4 3 3 2 3 4 5 7 7 7 7 7 7 8 10 10
14 12 16 20 15 12 11 12 9 4 4 5 2 4 4 5 2 2 2 2 6 9 12 12 11 8 4 5 9 14 16 17 16 16 13 11 9 7 6 6 4 4 4 1 4 4 5 5 5 7 8 8 9 9
12 18 16 14 21 14 14 12 12 14 14 14 7 8 9 8 7 8 9 10 14 14 12 11 9 8 3 4 9 14 17 16 17 17 16 13 11 9 8 7 5 5 3 1 2 3 5 4 4 5 6 6 6 8
20 20 22 22 18 19 27 26 24 22 22 22 21 22 19 16 13 9 9 11 11 12 12 13 11 8 6 7 8 9 11 11 11 12 15 13 10 10 9 8 7 5 4 2 1 3 4 3 5 5 5 5 6 6
18 13 14 21 19 24 24 23 25 27 26 23 24 24 22 18 9 6 10 11 10 11 11 10 7 3 2 6 10 10 9 9 10 11 10 9 10 9 9 8 7 7 6 4 3 2 3 3 3 3 5 6 6 6
16 17 15 15 15 18 15 15 16 18 14 14 21 23 21 12 6 1 8 7 4 4 6 6 5 4 3 3 6 11 10 9 9 7 6 8 10 9 7 5 5 6 6 6 6 6 4 2 1 1 2 3 4 5
16 18 18 14 10 9 15 14 6 8 13 15 13 14 9 5 5 6 7 8 6 5 3 1 5 8 9 8 9 10 12 13 12 11 9 7 6 6 7 7 7 7 8 7 7 6 5 4 4 4 4 3 3 3
Wind_Direction
334 337 339 345 345 342 342 347 347 347 347 339 344 346 345 340 316 290 290 283 264 260 284 279 285 281 276 270 271 316 313 42 299 293 310 352 343 323 296 100 173 178 191 182 232 245 179 3 55 331 16 348 343 338
322 328 334 334 338 340 340 338 344 347 344 341 336 342 340 337 319 279 293 281 279 259 273 295 288 291 275 263 261 274 290 311 285 295 325 307 295 281 297 201 180 235 44 332 295 39 63 21 58 42 4 347 351 339
317 320 324 328 330 334 336 337 340 346 345 340 335 338 336 331 315 294 270 272 294 283 305 293 325 306 329 293 233 246 243 264 247 302 311 288 301 334 328 25 307 170 23 304 289 65 13 107 35 17 360 344 343 342
309 315 318 323 327 330 333 334 334 341 344 340 336 338 333 327 308 300 275 274 252 277 291 317 324 331 337 320 285 248 243 276 292 303 289 268 271 208 306 285 301 329 323 301 293 28 45 163 357 349 339 339 340 341
309 312 313 319 325 327 329 330 331 337 342 340 335 337 329 321 308 296 296 253 235 256 309 305 311 307 0 352 331 251 262 247 267 270 265 265 321 316 253 207 5 293 347 346 327 329 329 328 323 333 331 336 336 338
307 312 312 311 318 321 323 327 329 335 339 337 332 335 328 313 303 287 265 33 261 243 291 291 317 301 339 355 42 171 234 226 255 266 272 280 279 340 312 291 85 7 344 331 312 311 302 296 294 313 319 323 327 328
306 307 313 314 314 316 319 324 327 333 338 336 330 332 329 308 225 194 258 234 311 263 245 282 281 310 350 14 56 103 217 255 276 303 266 334 344 326 280 342 359 335 319 309 304 307 302 321 311 309 313 315 318 320
305 303 306 310 313 318 318 321 326 331 336 336 327 334 338 187 151 220 224 287 276 232 260 285 288 300 4 354 19 337 227 233 246 306 346 333 312 316 337 337 324 318 316 310 304 308 294 296 295 299 305 312 312 315
300 301 303 306 311 311 314 317 322 327 333 338 325 326 165 134 180 237 289 265 184 215 284 251 298 303 335 323 288 250 287 258 268 289 241 302 324 336 290 307 300 306 290 290 296 291 292 288 288 291 292 304 307 312
296 294 299 305 309 311 314 314 316 322 332 340 337 312 221 209 309 302 149 155 198 206 227 251 285 287 317 320 276 290 231 261 265 96 271 248 234 269 328 332 332 329 319 324 276 289 293 291 291 290 288 293 294 300
295 301 305 308 311 319 313 314 319 322 336 354 335 283 282 300 273 201 204 212 171 220 214 234 266 300 323 294 312 1 301 359 266 77 346 311 353 352 348 347 343 337 333 314 309 288 279 282 289 286 284 286 289 295
302 292 293 298 309 314 311 318 319 328 331 319 298 284 296 243 202 228 202 168 217 263 178 243 332 248 256 236 269 281 284 261 338 15 253 344 4 352 346 340 336 334 336 331 331 304 268 261 284 282 276 281 287 293
307 303 296 298 307 306 311 308 318 325 330 321 306 272 242 206 227 217 202 183 213 192 183 278 302 209 199 237 257 285 271 270 313 270 345 322 349 352 350 346 343 347 353 357 350 336 255 268 292 276 281 291 298 299
310 311 303 303 310 304 291 312 319 327 334 288 258 268 228 205 230 207 201 216 144 246 276 304 299 225 203 217 229 258 268 290 260 294 264 355 346 348 352 352 351 351 358 5 10 27 27 351 348 323 310 314 315 306
315 315 322 319 314 278 299 305 308 314 269 250 218 243 231 240 244 226 224 222 221 242 260 255 216 225 185 249 206 264 234 237 226 252 307 338 353 347 347 353 355 359 3 13 15 25 26 19 7 352 354 345 334 322
316 320 333 324 318 307 296 294 301 302 240 229 231 251 237 252 249 228 232 239 219 216 216 249 243 219 199 225 212 220 242 232 219 223 289 324 344 355 350 348 356 1 5 14 17 24 23 21 17 11 7 357 353 349
316 315 308 321 326 323 315 296 277 226 232 228 241 234 252 265 272 275 258 245 197 210 250 228 242 238 119 228 230 208 217 220 238 278 302 320 320 349 353 351 350 358 10 16 18 25 27 23 19 15 4 354 351 351
308 311 310 323 326 324 320 249 231 240 245 240 245 250 233 248 264 262 249 232 214 229 230 235 234 213 216 199 213 215 230 249 259 277 310 319 316 344 357 356 356 358 1 12 21 26 28 29 30 23 16 11 8 353
303 305 321 308 307 304 282 249 228 262 245 258 259 261 256 259 257 255 256 242 230 234 228 217 242 235 227 224 251 279 232 240 260 264 286 286 297 338 347 358 5 3 6 6 10 16 16 18 24 25 18 9 7 360
299 302 320 301 314 254 263 255 231 258 264 277 261 258 249 257 268 253 248 229 214 213 215 224 235 245 244 237 257 267 269 239 246 265 240 197 245 311 337 348 359 0 5 12 10 10 10 12 16 17 18 19 8 2
305 295 314 312 291 230 258 264 244 246 276 261 277 268 267 253 256 248 239 224 214 231 237 240 249 250 248 249 253 246 234 223 231 254 285 259 288 296 322 337 345 349 353 0 7 7 10 8 6 9 16 20 22 18
277 290 302 294 251 241 250 236 238 276 260 261 272 260 269 268 265 258 241 215 237 242 254 257 256 249 246 235 235 234 230 213 216 221 229 246 260 273 311 331 339 342 347 352 352 357 2 12 8 13 14 24 14 24
279 263 259 232 230 230 255 218 232 226 245 240 238 247 230 226 235 182 223 226 250 269 272 273 264 249 243 244 226 226 211 205 209 217 218 222 221 238 306 315 327 338 339 341 342 346 357 14 13 26 20 31 30 24
245 240 238 234 211 247 231 223 213 246 236 234 241 252 256 244 202 235 244 260 274 289 285 283 270 253 237 233 232 227 212 202 206 202 197 195 219 212 315 323 321 338 347 345 344 348 5 20 21 37 23 9 19 24
235 218 215 236 240 230 225 227 220 226 237 241 251 256 251 213 234 236 234 252 11 359 346 326 271 256 239 223 214 211 197 194 193 191 191 194 199 202 249 295 321 349 355 350 354 4 18 31 36 34 31 28 24 13
242 220 208 221 229 219 222 234 231 238 241 243 245 243 225 228 234 238 188 100 22 12 352 336 322 296 254 242 243 214 208 195 189 187 180 180 181 193 213 25 76 43 18 11 12 25 36 38 40 34 27 20 9 17
238 225 215 226 243 268 265 256 265 268 257 237 222 203 202 221 231 151 145 94 57 15 3 351 338 309 275 259 235 213 194 181 183 186 176 168 163 149 140 129 107 91 58 65 55 47 46 41 35 34 27 11 18 25
230 243 237 232 232 240 261 268 281 265 241 213 239 222 214 197 232 98 112 355 334 339 332 326 331 328 297 244 197 175 169 167 168 168 169 176 177 158 141 129 128 125 121 89 29 33 38 43 41 31 26 19 15 17
228 233 243 246 250 251 241 245 249 253 264 276 267 279 287 303 296 292 304 309 313 313 312 321 307 316 320 145 166 171 174 173 171 180 187 186 184 185 172 163 150 144 134 62 56 31 8 5 22 25 19 27 26 18
236 233 239 243 247 247 248 254 261 267 273 278 284 285 279 276 284 302 301 298 301 297 297 299 296 281 240 206 178 166 165 180 201 213 213 210 203 185 170 168 168 173 182 185 294 354 10 43 50 51 47 33 27 29
243 223 223 237 249 256 262 263 259 261 262 267 263 261 261 276 286 277 279 290 305 301 295 278 262 245 214 204 197 186 185 192 191 188 163 152 159 160 163 164 167 175 186 201 204 170 136 119 91 65 48 35 23 20
237 237 234 239 247 256 263 265 260 263 260 245 245 244 255 250 216 140 353 336 319 280 250 212 179 106 156 138 165 172 183 177 169 183 182 184 175 176 176 169 178 187 184 169 159 158 156 182 184 96 76 66 57 48
230 234 241 247 255 263 254 244 259 257 246 235 248 230 212 181 92 24 29 20 27 21 8 181 168 153 160 152 136 141 150 155 153 156 158 166 175 182 176 176 180 168 162 157 152 149 140 133 128 123 117 111 92 81